Regional Weather Roundup
Issued by NWS Goodland, KS

Home | Current Version | Previous Version | Graphics & Text | Print | Product List | Glossary On
Versions: 1 2 3 4 5 6 7 8 9 10 11 12 13 14 15 16 17 18 19 20 21 22 23 24 25 26 27 28 29 30 31 32 33 34 35 36 37 38 39 40 41 42 43 44 45 46 47 48 49 50
000
ASUS43 KGLD 311659
RWRGLD

GOODLAND FORECAST AREA HOURLY WEATHER ROUNDUP
NATIONAL WEATHER SERVICE GOODLAND KS
1000 AM MST SAT JAN 31 2015

...OFFICIAL OBSERVATIONS...

CITY           SKY/WX    TMP DP  RH WIND       PRES   REMARKS
GOODLAND KS    CLOUDY    38  34  85 NW3       29.89R
HILL CITY KS   CLOUDY    36  34  92 S10       29.97F FOG
IMPERIAL NEB   FOG       33  32  96 E6        29.92S VSB 1/4
MCCOOK NEB     FOG       35  33  92 SE6       29.95F VSB 3/4
AKRON CO       FOG       32  32 100 N7        29.88F VSB 3/4
BURLINGTON CO  CLOUDY    34  32  92 N9        29.88F FOG
LIMON CO       CLOUDY    34  27  75 NW14      29.87F
$$

...UNOFFICIAL OBSERVATIONS...

CITY           SKY/WX    TMP DP  RH WIND       PRES   REMARKS
GOVE KS          N/A     38  32  79 MISG        N/A
SHARON SPRINGS   N/A     38  37  96 SW8         N/A
KIT CARSON CO    N/A     33  30  90 MISG        N/A
YUMA CO          N/A     34  32  93 CALM        N/A
$$


USA.gov is the U.S. government's official web portal to all federal, state and local government web resources and services.